Temp
13 13 13 13 13 13 13 13 13 13 12 12 11 11 11 11 11 11 11 11 11 11 11 11 11 11 11 11 11 11 11 11 11 11 11 11 11 11 11 11 12 12
13 13 12 13 12 12 13 13 13 13 12 12 11 11 11 11 11 11 11 11 11 11 11 11 11 11 12 12 12 12 12 12 12 12 12 12 12 12 12 12 12 12
12 12 12 12 12 13 13 13 13 13 12 12 11 11 11 11 11 11 11 11 11 11 11 11 11 12 12 12 12 12 12 12 12 12 12 12 12 12 12 12 12 12
11 11 11 12 12 13 13 13 13 13 12 12 12 11 11 11 11 11 11 11 11 11 11 11 11 12 12 12 12 12 12 12 12 13 13 13 13 12 12 12 12 12
12 11 12 12 12 13 13 13 13 13 12 12 12 11 11 11 11 11 11 11 11 11 11 11 11 11 12 12 12 12 12 12 12 12 12 13 13 12 12 12 12 12
12 12 12 12 12 13 13 13 13 13 13 12 12 12 11 11 11 11 11 11 11 11 11 11 11 11 12 12 12 12 12 12 12 12 12 12 12 12 12 12 12 12
11 11 12 12 13 13 13 13 13 13 13 12 12 12 12 12 12 12 12 11 11 11 11 11 11 11 12 12 12 12 12 12 12 12 12 12 12 12 12 12 12 11
11 11 11 12 13 13 13 13 12 12 13 13 12 12 12 12 12 12 12 12 12 11 11 11 11 11 12 12 12 12 11 11 11 11 11 11 11 11 11 11 11 11
11 11 12 12 12 13 13 13 13 12 12 13 12 12 12 12 12 12 12 12 11 11 11 11 11 11 11 11 11 11 11 11 11 11 11 11 10 10 10 11 11 10
10 11 12 12 12 12 12 13 13 12 12 12 12 12 12 12 12 11 11 11 11 11 11 11 11 10 10 10 11 11 11 11 11 11 10 10 10 10 10 10 10 10
10 11 11 12 12 12 12 12 13 12 12 12 12 12 12 12 12 11 11 11 11 11 11 11 10 10 10 10 10 10 10 10 10 10 10 10 10 10 10 10 10 10
10 11 11 11 11 11 12 12 12 12 12 12 11 12 12 12 11 11 11 11 11 10 10 10 10 10 10 10 10 10 10 10 10 10 10 10 10 10 9 9 9 9
10 10 11 11 11 11 11 11 12 12 12 12 11 11 12 12 11 11 11 11 10 10 9 9 9 9 9 9 9 9 9 9 9 9 9 9 9 9 9 9 9 9
10 10 11 11 11 11 11 11 11 12 11 11 11 11 12 12 11 11 11 10 9 9 9 9 9 9 9 9 9 9 9 9 9 9 9 9 9 9 9 9 9 9
10 10 10 10 10 11 11 11 12 12 11 11 10 11 11 11 11 10 10 9 9 9 8 9 9 9 9 9 9 9 9 9 9 9 9 9 9 9 9 9 9 9
11 11 11 11 11 11 11 11 11 11 12 11 10 10 11 11 10 9 9 9 9 9 9 9 9 10 10 9 9 9 9 9 9 9 9 9 9 9 9 9 9 9
10 10 10 11 11 11 11 11 11 11 11 11 11 10 10 10 10 10 10 10 9 9 9 9 9 9 9 9 8 8 9 9 9 9 9 9 9 9 9 10 9 9
10 10 10 10 10 10 10 10 10 11 11 11 11 11 10 10 10 10 10 10 9 9 9 9 9 9 9 8 8 8 9 9 9 9 9 9 9 9 9 10 10 10
10 10 10 10 10 10 10 9 9 10 11 11 11 10 10 10 10 10 10 10 9 9 9 9 9 9 8 8 8 9 9 9 9 9 9 9 9 9 10 10 10 10
10 10 10 10 10 10 10 10 10 10 10 10 10 10 10 10 10 10 10 10 9 9 9 9 9 8 8 8 9 9 9 9 9 9 9 9 9 9 9 9 9 9
9 9 10 9 10 10 10 10 10 10 10 10 10 10 10 10 10 10 10 9 9 9 9 8 8 8 8 8 9 9 9 9 9 9 9 10 10 9 9 9 9 9
9 9 9 9 9 10 10 10 10 10 10 10 9 9 10 9 9 9 9 9 9 9 9 9 8 8 9 9 9 8 8 9 9 9 9 9 9 9 9 9 9 9
9 9 9 9 9 9 9 9 9 10 10 9 9 10 10 10 10 9 9 9 9 9 9 9 9 9 8 8 8 8 8 8 8 9 9 9 9 9 9 9 9 9
9 9 9 9 9 9 9 9 9 9 9 9 9 9 9 9 9 9 9 9 9 9 9 9 8 8 8 8 8 8 8 8 8 8 8 8 8 8 8 8 8 8
8 8 9 9 9 9 9 9 9 9 9 9 9 9 9 9 9 9 9 9 9 9 8 8 8 8 7 7 7 7 7 7 7 7 7 7 7 7 7 7 7 7
8 8 8 8 8 9 9 9 9 9 9 8 8 9 9 9 8 9 9 8 8 8 8 8 8 7 7 7 7 7 7 7 7 6 6 6 6 6 6 6 6 6
Height
1533 1533 1533 1533 1533 1533 1534 1535 1536 1536 1536 1536 1537 1537 1537 1538 1539 1539 1540 1541 1542 1543 1544 1545 1545 1545 1545 1545 1546 1546 1546 1546 1546 1546 1547 1547 1548 1549 1549 1550 1550 1551
1532 1533 1532 1532 1532 1533 1535 1536 1537 1538 1538 1538 1538 1539 1539 1540 1540 1541 1542 1543 1544 1545 1545 1546 1546 1546 1546 1546 1547 1547 1547 1547 1547 1547 1548 1548 1549 1550 1550 1551 1552 1552
1530 1532 1532 1532 1532 1533 1535 1537 1538 1539 1539 1539 1540 1540 1541 1541 1542 1543 1544 1545 1545 1546 1547 1547 1547 1547 1548 1548 1548 1548 1548 1549 1549 1548 1549 1549 1550 1551 1551 1552 1553 1553
1530 1531 1532 1533 1533 1534 1535 1536 1538 1540 1540 1540 1541 1541 1542 1543 1543 1544 1545 1546 1547 1548 1548 1548 1549 1549 1549 1549 1549 1550 1550 1550 1550 1550 1550 1550 1551 1552 1552 1553 1553 1554
1527 1529 1532 1534 1534 1534 1535 1536 1538 1540 1540 1541 1542 1542 1543 1544 1544 1545 1546 1547 1548 1549 1549 1549 1550 1550 1550 1550 1551 1551 1551 1551 1551 1551 1551 1551 1552 1552 1553 1553 1554 1554
1525 1528 1531 1533 1534 1534 1534 1535 1537 1540 1541 1542 1542 1543 1544 1544 1545 1546 1546 1547 1548 1549 1550 1550 1551 1551 1551 1552 1552 1552 1553 1553 1553 1553 1553 1553 1552 1553 1553 1554 1554 1554
1527 1530 1531 1533 1534 1534 1534 1535 1537 1539 1540 1542 1543 1543 1544 1545 1546 1546 1547 1548 1548 1549 1550 1551 1551 1552 1552 1552 1553 1553 1554 1554 1554 1554 1554 1554 1554 1554 1554 1554 1555 1555
1526 1528 1528 1530 1532 1533 1535 1535 1536 1537 1539 1541 1543 1544 1545 1545 1546 1547 1547 1548 1549 1549 1550 1551 1551 1552 1552 1553 1553 1554 1554 1555 1555 1555 1555 1555 1555 1555 1555 1555 1556 1556
1523 1524 1525 1527 1529 1532 1534 1535 1536 1537 1538 1540 1542 1543 1544 1545 1546 1546 1547 1548 1548 1549 1550 1550 1551 1552 1552 1553 1554 1555 1555 1555 1556 1556 1556 1556 1556 1556 1556 1557 1557 1557
1520 1522 1524 1526 1528 1531 1533 1534 1535 1536 1537 1539 1541 1542 1543 1544 1545 1546 1547 1547 1548 1548 1549 1549 1550 1551 1552 1553 1554 1555 1555 1556 1556 1556 1556 1556 1556 1556 1556 1557 1557 1557
1519 1521 1523 1525 1527 1529 1531 1531 1532 1534 1535 1537 1539 1541 1542 1543 1544 1546 1546 1546 1547 1548 1549 1550 1550 1551 1551 1552 1553 1554 1555 1556 1556 1556 1556 1556 1556 1556 1556 1556 1557 1557
1518 1520 1521 1523 1525 1527 1527 1528 1530 1531 1532 1534 1537 1539 1540 1541 1542 1544 1545 1545 1546 1547 1548 1549 1550 1551 1550 1551 1551 1553 1554 1556 1556 1556 1556 1556 1555 1555 1556 1556 1556 1556
1516 1518 1519 1521 1523 1525 1525 1526 1528 1529 1530 1532 1534 1536 1538 1539 1540 1541 1542 1544 1544 1545 1547 1548 1549 1549 1549 1549 1550 1551 1553 1554 1555 1555 1555 1555 1554 1554 1555 1555 1555 1555
1515 1517 1518 1519 1521 1522 1523 1525 1526 1526 1528 1530 1532 1534 1535 1536 1537 1539 1540 1542 1543 1544 1546 1547 1547 1547 1548 1548 1549 1549 1551 1552 1553 1553 1553 1553 1553 1553 1553 1553 1553 1553
1513 1514 1516 1517 1518 1519 1520 1522 1522 1522 1525 1529 1531 1532 1532 1532 1534 1536 1539 1540 1542 1543 1546 1545 1544 1545 1546 1546 1547 1548 1549 1550 1550 1550 1550 1550 1550 1550 1551 1551 1551 1551
1511 1512 1513 1514 1514 1515 1517 1518 1520 1520 1522 1526 1528 1529 1529 1529 1531 1535 1537 1538 1539 1542 1544 1543 1542 1543 1544 1545 1546 1546 1547 1548 1548 1548 1548 1548 1548 1548 1548 1548 1548 1548
1509 1510 1511 1512 1512 1512 1513 1514 1517 1519 1521 1523 1524 1525 1526 1527 1529 1532 1533 1534 1537 1540 1540 1540 1540 1542 1543 1544 1544 1545 1546 1546 1546 1546 1546 1545 1545 1545 1545 1545 1545 1546
1507 1508 1509 1509 1510 1511 1513 1514 1516 1518 1519 1520 1521 1522 1524 1526 1527 1529 1531 1533 1535 1537 1537 1538 1539 1540 1542 1543 1543 1543 1544 1543 1543 1543 1543 1543 1542 1542 1542 1542 1542 1542
1506 1506 1506 1507 1508 1509 1512 1514 1516 1517 1517 1518 1520 1521 1523 1525 1525 1527 1529 1531 1533 1534 1536 1537 1538 1539 1541 1542 1542 1542 1541 1541 1540 1540 1540 1539 1539 1539 1539 1539 1539 1539
1505 1505 1505 1507 1508 1508 1510 1512 1514 1515 1515 1517 1519 1520 1521 1522 1524 1525 1527 1529 1531 1533 1534 1535 1537 1538 1539 1540 1540 1539 1539 1538 1538 1538 1537 1537 1536 1536 1536 1536 1536 1536
1504 1505 1505 1506 1507 1508 1509 1510 1511 1512 1514 1515 1517 1518 1519 1521 1522 1524 1526 1527 1529 1531 1532 1534 1535 1537 1537 1538 1538 1537 1537 1537 1536 1536 1535 1535 1534 1534 1534 1534 1534 1534
1503 1503 1504 1505 1505 1506 1507 1508 1510 1511 1512 1513 1515 1516 1518 1519 1521 1522 1524 1525 1527 1529 1531 1532 1534 1535 1535 1536 1536 1536 1535 1535 1535 1534 1534 1534 1533 1533 1533 1532 1532 1532
1503 1503 1503 1504 1504 1505 1506 1507 1508 1509 1510 1511 1513 1515 1516 1518 1519 1521 1522 1524 1526 1528 1529 1531 1532 1533 1533 1534 1534 1534 1533 1533 1533 1533 1533 1533 1532 1532 1531 1531 1531 1531
1504 1504 1504 1504 1504 1505 1506 1507 1508 1508 1509 1510 1512 1513 1515 1517 1518 1520 1521 1523 1525 1526 1528 1529 1530 1531 1531 1532 1532 1532 1531 1531 1531 1531 1531 1531 1531 1531 1530 1530 1530 1530
1505 1504 1505 1505 1505 1506 1507 1508 1509 1509 1510 1510 1511 1513 1514 1515 1517 1518 1520 1522 1523 1525 1526 1527 1529 1529 1529 1530 1530 1530 1530 1530 1530 1530 1530 1529 1529 1529 1529 1529 1528 1528
1505 1504 1505 1506 1506 1507 1508 1509 1509 1510 1510 1511 1511 1512 1513 1515 1516 1517 1519 1521 1522 1524 1525 1526 1527 1527 1527 1527 1527 1527 1528 1528 1528 1528 1528 1528 1528 1527 1527 1527 1527 1527
Wind_Speed
12 8 3 1 1 1 2 4 3 1 3 4 6 7 9 9 10 10 10 10 10 10 11 11 11 11 11 11 11 10 10 9 10 10 9 9 9 9 9 10 11 11
15 10 5 5 4 2 1 2 1 2 4 6 7 8 9 10 10 10 10 10 11 11 10 10 10 10 11 11 11 11 11 10 11 12 11 11 11 11 11 12 13 13
18 13 9 9 8 6 2 2 3 5 6 8 9 9 10 10 10 10 10 10 10 11 11 11 11 11 11 12 12 12 13 13 14 14 13 13 13 13 13 13 13 13
20 17 12 9 10 10 8 6 7 9 9 9 9 9 10 10 11 11 11 10 10 10 11 11 11 11 12 12 12 13 13 13 14 13 13 13 13 12 12 12 12 12
25 23 19 13 14 15 12 9 9 10 10 10 10 10 10 10 10 11 11 11 11 10 10 10 10 10 11 11 11 11 12 12 12 12 11 10 11 10 9 9 9 9
29 27 25 20 18 18 15 11 11 11 11 11 10 10 9 9 9 9 10 10 10 10 9 9 9 9 10 10 9 9 9 9 8 9 8 7 8 7 7 6 6 5
24 22 25 24 20 20 17 13 13 13 13 13 11 11 10 9 9 8 8 8 7 7 7 7 7 7 8 8 8 7 6 5 5 5 5 5 5 4 4 4 3 3
20 17 25 30 23 21 20 16 16 14 15 15 12 11 11 10 10 8 7 7 6 6 6 5 5 5 5 6 6 5 4 3 3 2 2 2 3 2 2 2 2 2
22 17 23 32 28 23 22 20 19 18 17 18 15 13 12 11 11 10 9 9 7 7 6 6 6 5 4 4 4 3 2 1 1 1 1 2 2 2 2 2 2 2
24 18 22 32 30 24 23 23 22 21 21 21 20 18 16 15 14 13 12 11 10 9 8 8 8 7 5 4 3 2 1 1 1 2 1 0 1 1 2 2 3 4
27 23 23 30 28 22 23 26 27 25 24 25 25 23 21 19 18 15 14 13 12 10 9 8 7 6 4 3 4 4 3 2 2 4 5 4 3 2 2 3 4 5
32 28 26 29 29 26 27 30 30 28 25 26 27 27 25 24 23 21 18 16 14 12 10 8 7 5 3 4 6 7 7 6 5 6 7 8 7 6 5 5 5 6
34 33 31 31 32 31 30 30 30 29 27 24 26 29 29 28 27 25 22 19 16 14 13 11 10 10 9 7 8 9 10 11 11 9 9 10 10 10 9 9 9 9
32 34 34 34 33 30 29 29 30 28 26 24 26 30 32 31 30 28 25 21 16 13 15 16 14 13 12 11 11 13 15 16 15 13 12 12 11 11 11 12 12 12
26 29 31 33 32 28 26 28 31 30 25 23 25 29 31 31 30 28 25 22 17 14 16 17 13 10 12 13 13 15 17 18 17 16 16 15 13 12 13 13 14 14
20 22 25 28 30 28 26 26 30 31 28 24 25 28 30 31 28 25 25 27 27 20 15 14 12 11 14 16 17 18 18 18 18 18 18 17 15 15 15 15 15 15
16 17 18 20 23 24 24 25 25 25 24 23 24 27 28 28 26 22 20 25 26 20 16 15 15 16 16 18 19 19 19 19 18 17 16 15 15 16 16 15 15 15
13 14 15 18 21 21 21 21 20 19 20 21 22 25 25 23 21 18 17 21 22 21 20 19 17 17 18 19 18 17 17 17 16 15 15 15 15 15 15 16 16 16
12 14 16 19 20 19 18 18 19 20 21 21 20 22 23 21 18 16 18 20 21 21 22 20 18 19 19 16 15 15 15 16 16 16 16 15 14 14 13 14 14 15
13 15 18 19 18 18 16 16 18 22 22 20 19 20 21 18 15 15 17 18 19 18 18 18 18 17 15 12 12 13 14 14 14 13 11 11 10 10 10 10 10 11
13 14 16 17 18 18 16 15 18 21 20 18 18 18 17 16 15 15 16 17 17 16 15 14 13 13 11 10 10 10 9 9 8 8 9 9 9 9 9 9 9 9
10 13 15 17 18 18 17 17 19 20 18 16 16 15 15 15 15 16 16 16 16 14 13 12 11 10 10 9 7 6 6 7 7 8 8 9 9 10 10 10 10 9
5 7 11 14 17 17 18 18 18 17 16 16 16 17 17 16 16 17 17 16 15 14 12 11 9 8 7 5 4 5 7 8 8 8 9 9 9 9 9 10 10 9
5 4 4 6 8 10 12 14 14 15 15 16 17 17 18 17 17 18 17 15 14 12 11 9 7 6 4 4 5 7 9 10 10 11 11 11 11 11 10 10 10 9
5 5 5 6 6 7 9 11 12 13 14 15 16 17 17 18 17 16 16 14 13 11 9 7 5 4 4 5 7 9 10 11 11 12 13 13 13 13 12 12 10 9
6 6 8 8 6 5 7 9 10 12 14 14 15 16 16 16 16 16 15 14 12 10 7 5 5 5 6 7 9 11 12 12 12 13 13 13 14 13 12 11 10 9
Wind_Direction
244 242 229 199 168 77 9 342 325 273 168 148 145 146 146 146 141 137 134 133 131 129 128 124 118 114 110 108 106 105 104 103 104 102 100 101 99 98 99 96 95 92
223 213 187 177 150 98 352 323 303 219 170 149 151 152 154 154 149 146 143 141 142 140 138 131 123 117 110 105 103 101 102 102 102 101 100 102 102 102 102 99 97 94
201 193 189 187 159 137 192 226 205 201 179 160 159 158 157 158 155 152 151 149 148 143 139 133 126 120 112 106 105 103 102 102 100 101 105 107 106 106 106 102 98 94
199 197 208 199 167 170 201 215 204 201 190 171 166 166 164 163 161 157 156 155 153 149 141 136 130 123 117 113 112 110 108 107 103 102 106 108 110 110 110 108 103 98
210 209 220 206 176 187 204 206 205 207 202 188 179 179 175 172 171 165 163 161 159 158 151 143 137 130 124 119 117 115 113 112 110 108 109 110 112 115 114 113 110 106
212 212 221 210 190 200 209 202 204 211 211 204 192 188 186 182 181 174 171 169 163 164 162 152 145 137 131 125 118 116 112 112 115 114 116 116 117 120 118 116 117 115
210 221 222 209 202 212 216 204 202 209 212 213 205 197 195 187 184 179 175 172 162 162 163 156 150 139 133 129 124 123 120 119 121 118 119 117 113 114 114 115 113 107
215 234 221 212 211 219 225 221 214 211 211 214 213 203 197 190 188 186 179 174 168 167 166 160 155 145 140 136 132 134 131 126 122 107 97 85 74 66 68 85 85 67
225 235 217 215 220 225 233 236 228 221 215 215 215 210 206 199 194 191 185 179 176 180 184 180 176 177 171 157 145 145 141 129 117 76 84 73 55 33 16 14 12 14
231 233 212 215 225 231 238 242 237 230 225 221 219 218 218 215 207 199 191 186 184 187 190 190 192 197 202 202 185 178 206 272 316 322 307 307 48 35 9 0 355 350
228 232 218 216 224 231 239 244 242 236 233 230 228 224 222 224 222 214 203 198 196 197 199 201 203 199 201 233 232 225 239 259 300 315 307 290 280 296 320 326 336 334
224 230 226 220 221 227 237 242 241 239 238 237 235 233 231 228 228 227 222 215 211 212 216 219 221 224 250 263 240 235 248 256 267 291 301 293 278 274 282 288 294 300
226 228 227 225 225 231 240 242 240 241 243 240 237 238 237 233 231 232 228 224 227 227 225 230 236 244 263 271 258 254 260 265 269 276 288 291 281 271 269 273 277 277
231 231 232 232 232 237 241 240 239 241 244 245 242 240 240 239 236 234 228 226 238 242 235 240 246 248 257 265 268 270 271 272 272 273 282 288 279 269 268 271 274 273
236 237 237 236 237 242 244 240 235 235 238 247 249 245 243 240 235 233 229 224 235 254 251 243 240 248 264 275 283 284 280 276 272 274 283 286 278 273 273 273 275 274
242 241 241 241 240 241 244 242 235 231 232 239 247 250 251 250 246 244 239 233 237 247 242 224 226 254 276 285 291 291 286 279 277 280 284 284 281 281 282 281 280 277
252 247 246 245 239 234 238 238 230 227 231 238 246 251 253 257 260 257 243 231 229 227 218 222 243 263 275 285 288 286 283 280 280 282 283 283 285 286 286 286 284 282
268 258 245 233 227 226 230 231 226 227 236 245 250 249 247 252 259 250 226 216 221 228 233 240 251 262 274 282 282 278 278 280 283 286 288 290 291 290 289 288 286 284
263 258 250 237 230 232 233 233 233 237 242 247 249 246 247 252 249 232 220 221 231 239 240 239 247 261 270 273 269 271 278 282 287 291 295 297 296 294 293 290 286 284
251 253 253 246 242 246 243 232 232 238 242 246 245 242 244 243 231 220 223 230 236 235 234 238 247 254 255 256 262 274 282 286 293 300 306 311 312 312 310 303 294 287
248 250 247 240 240 246 240 224 227 236 238 236 234 230 229 225 220 219 220 221 223 221 222 226 229 232 241 255 268 280 287 293 303 312 317 322 324 326 327 321 314 303
240 245 242 237 238 243 238 228 228 229 224 217 212 207 208 210 211 210 206 206 205 202 201 205 212 227 245 255 265 283 296 301 306 309 311 314 315 318 321 323 324 323
210 232 235 234 237 240 235 227 220 211 205 202 198 196 199 202 201 198 195 195 194 194 198 205 215 230 240 251 281 305 314 317 318 318 319 318 318 319 321 323 328 331
145 155 185 201 210 213 208 203 200 198 196 195 195 197 197 194 191 190 189 189 191 196 201 205 214 229 245 281 306 314 320 324 325 326 328 328 329 331 332 334 335 335
163 166 171 159 154 171 180 181 185 187 186 184 186 188 187 186 186 188 191 193 195 196 197 202 218 240 265 290 303 311 319 322 323 327 330 333 334 335 337 337 335 331
207 207 204 191 179 183 189 194 197 193 189 186 184 183 183 184 185 188 191 191 189 188 192 207 233 261 283 297 305 311 314 318 321 325 329 331 333 334 334 332 325 316